Tracking 28096 objects as of 28-Sep-2023
HD Live streaming from Space Station
objects crossing your sky now

DELTA 2 R/B

Track DELTA 2 R/B now!
10-day predictions


NORAD ID: 33106
Int'l Code: 2008-032B
Perigee: 2,159.9 km
Apogee: 4,375.3 km
Inclination: 65.2 °
Period: 157.0 minutes
Semi major axis: 9638 km
RCS: 10.82 m2 (large)
Launch date: June 20, 2008
Source: United States (US)
Launch site: AIR FORCE WESTERN TEST RANGE (AFWTR)

Note: This is a ROCKET BODY
Your satellite tracking list
Your tracking list is empty




NASA's NSSDC Master Catalog

Two Line Element Set (TLE):
1 33106U 08032B   23270.34813537 -.00000041  00000-0 -26812-2 0  9992
2 33106  65.2308 234.1723 1149223  14.4805 135.1689  9.17448172511581
Source of the keplerian elements: AFSPC